Погода в Первомайском

Россия / Карачаево-Черкесская Республика     43°56′17″N   42°28′53″E
темп.,
°C
ветер,
м/с
пор.,
м/с
влажн.,
%
обл.,
%
осадки,
мм/ч
давл.,
гПа
погр.,
м
24 июня, чт
чт2400:00+18юв119248 0.0 101411
03:00+18зюз2294100 0.9 101520
06:00+19з2294100 2.3 101553
09:00+20сз129082 2.7 1015279
12:00+22с438270 0.3 1015810
15:00+22ссз228463 1.1 1014552
18:00+22сз128134 0.4 1015514
21:00+18юз229012 0.5 101524
25 июня, пт
пт2500:00+17юз229189 0.1 101414
03:00+17юз1191100 0.1 101411
06:00+19ююз229097 0.0 101451
09:00+20с2288100 0.0 1013379
12:00+21с228990 0.4 1013518
15:00+22св228347 1.2 1013649
18:00+22ссв117986 0.3 1013627
21:00+19ююз229011 0.9 101319
26 июня, сб
сб2600:00+17юз228890 0.0 101211
03:00+16ююз228792 0.0 101114
06:00+18юз2285100 0.0 101130
09:00+22ссз2171100 0.0 1011592
12:00+23ссз437352 0.1 10111149
15:00+23ссз3374100 0.3 1011929
18:00+21сз2383100 0.2 1011392
21:00+18ююз2290100 0.8 101214
27 июня, вс
вс2700:00+18юз2189100 0.3 101111
03:00+17юз2277100 0.3 101125
06:00+18юз2384100 0.0 101351
09:00+21сз237999 0.0 1012673
12:00+23ссз427346 0.1 1012902
15:00+23с3374100 0.2 1012985
18:00+19зюз0089100 5.3 101411
21:00+18ю229199 6.0 101316
28 июня, пн
пн2800:00+16юз22908 0.0 101321
03:00+15юз338612 0.0 101428
06:00+17юз229082 0.8 101565
09:00+19ссв228962 0.8 1014406
12:00+21св228397 0.3 1014445
15:00+22ссв338097 1.1 1014803
18:00+21всв1185100 3.8 1014340
21:00+18ююз21920 3.8 101511